Home > Weather > Ganja > Past weeks

Flag for Azerbaijan Weather for the Past 2 Weeks in Ganja, Azerbaijan

Now
63 °F

Passing clouds.


Feels Like: 63 °F
Forecast: 58 / 80 °F
Wind: 9 mph from West

Location: Gyanca Airport

Current Time: May 4, 2016 at 11:39:51 PM

Latest Report: May 4, 2016 at 11:00 PM


Visibility: N/A

Pressure: 29.71 "Hg

Humidity: 83%

Dew Point: 57 °F

Location of GanjaLocation

Historic Weather in Ganja — Graph

°F

Ganja Temperature Yesterday

Maximum temperature yesterday: 66 °F (at 5:00 PM)
Minimum temperature yesterday: 52 °F (at 3:30 AM)
Average temperature yesterday: 59 °F

High & Low Weather Summary for the Past Weeks

 TemperatureHumidityPressure
High86 °F (Apr 26, 4:00 PM)100% (Apr 23, 9:00 AM)30.30 "Hg (Apr 23, 9:00 AM)
Low45 °F (Apr 23, 12:30 AM)20% (Apr 22, 6:00 PM)29.62 "Hg (May 4, 4:00 PM)
Average62 °F64%29.94 "Hg
* Reported Apr 19 9:00 PM — May 4 9:30 PM, Ganja, Weather by CustomWeather, © 2016

Note: Actual official high and low records may vary slightly from our data, if they occured in-between our weather recording intervals... More about our weather records

Advertising

Ganja Weather History for the Previous 24 Hours

Scroll right to see more
 ConditionsComfort  
Time TempWeatherWind HumidityBarometerVisibility
9:30 PM
Wed, May 4
63 °FPassing clouds.10 mph88%29.71 "HgN/A
9:00 PM64 °FPassing clouds.7 mph78%29.68 "HgN/A
8:30 PM64 °FPartly sunny.7 mph78%29.68 "HgN/A
8:00 PM64 °FPartly sunny.6 mph83%29.71 "HgN/A
7:30 PM64 °FPartly sunny.2 mph78%29.71 "HgN/A
7:00 PM64 °FPartly sunny.5 mph78%29.71 "HgN/A
6:30 PM66 °FThunderstorms. Broken clouds.14 mph73%29.71 "HgN/A
6:00 PM70 °FThunderstorms. Broken clouds.No wind57%29.68 "HgN/A
5:30 PM70 °FPartly sunny.7 mph57%29.62 "HgN/A
5:00 PM70 °FPartly sunny.8 mph53%29.62 "HgN/A
4:00 PM72 °FScattered clouds.8 mph50%29.62 "HgN/A
3:00 PM72 °FPartly sunny.8 mph50%29.65 "HgN/A
2:00 PM72 °FPartly sunny.9 mph50%29.68 "HgN/A
1:30 PM70 °FMild.8 mph53%29.71 "HgN/A
1:00 PM70 °FPartly sunny.13 mph53%29.71 "HgN/A
12:00 PM66 °FPartly sunny.8 mph56%29.74 "HgN/A
11:30 AM64 °FPartly sunny.8 mph64%29.74 "HgN/A
11:00 AM66 °FPartly sunny.7 mph60%29.77 "HgN/A
10:00 AM63 °FPartly sunny.6 mph73%29.77 "HgN/A
9:00 AM61 °FPartly sunny.5 mph72%29.77 "HgN/A
8:30 AM61 °FPartly sunny.No wind72%29.80 "HgN/A
8:00 AM59 °FPartly sunny.No wind72%29.77 "HgN/A
7:30 AM57 °FScattered clouds.No wind77%29.80 "HgN/A
7:00 AM55 °FScattered clouds.3 mph82%29.80 "HgN/A
6:30 AM55 °FPassing clouds.3 mph82%29.80 "HgN/A
6:00 AM54 °FPassing clouds.2 mph88%29.80 "HgN/A
5:30 AM54 °FPassing clouds.2 mph88%29.80 "HgN/A
5:00 AM54 °FPassing clouds.2 mph88%29.80 "HgN/A
4:30 AM54 °FPassing clouds.2 mph88%29.80 "HgN/A
4:00 AM54 °FPassing clouds.2 mph88%29.80 "HgN/A
3:30 AM54 °FPassing clouds.2 mph88%29.80 "HgN/A
3:00 AM55 °FPassing clouds.5 mph82%29.83 "HgN/A
2:30 AM55 °FPassing clouds.3 mph82%29.83 "HgN/A
2:00 AM57 °FPassing clouds.5 mph77%29.83 "HgN/A
1:30 AM59 °FPassing clouds.5 mph72%29.83 "HgN/A
1:00 AM59 °FPassing clouds.3 mph72%29.86 "HgN/A
12:30 AM59 °FPassing clouds.7 mph72%29.86 "HgN/A
12:00 AM57 °FPassing clouds.6 mph77%29.86 "HgN/A
11:30 PM
Tue, May 3
57 °FPassing clouds.8 mph77%29.86 "HgN/A
11:00 PM59 °FPassing clouds.8 mph72%29.89 "HgN/A
Weather by CustomWeather, © 2016

See weather overviewHow to use our weather pages